TimePDT,TemperatureF,Dew PointF,Humidity,Sea Level PressureIn,VisibilityMPH,Wind Direction,Wind SpeedMPH,Gust SpeedMPH,PrecipitationIn,Events,Conditions,WindDirDegrees,DateUTC
12:53 AM,73.0,48.9,42,29.90,10.0,Calm,Calm,-,N/A,,Clear,0,2013-08-16 07:53:00
1:53 AM,73.0,48.9,42,29.91,10.0,WNW,3.5,-,N/A,,Clear,300,2013-08-16 08:53:00
2:53 AM,72.0,48.9,44,29.89,10.0,NNW,6.9,-,N/A,,Clear,330,2013-08-16 09:53:00
3:53 AM,70.0,48.0,46,29.90,10.0,WNW,5.8,-,N/A,,Clear,300,2013-08-16 10:53:00
4:53 AM,69.1,46.9,45,29.90,10.0,NW,9.2,-,N/A,,Clear,320,2013-08-16 11:53:00
5:53 AM,68.0,48.0,49,29.91,10.0,NW,9.2,-,N/A,,Clear,320,2013-08-16 12:53:00
6:53 AM,68.0,46.0,45,29.92,10.0,NW,10.4,-,N/A,,Clear,320,2013-08-16 13:53:00
7:53 AM,70.0,46.9,44,29.94,10.0,NW,10.4,-,N/A,,Clear,310,2013-08-16 14:53:00
8:53 AM,71.1,46.9,42,29.96,10.0,NW,8.1,-,N/A,,Scattered Clouds,310,2013-08-16 15:53:00
9:53 AM,72.0,48.9,44,29.96,10.0,NNW,5.8,-,N/A,,Partly Cloudy,340,2013-08-16 16:53:00
10:53 AM,73.9,51.1,45,29.96,10.0,NNE,3.5,-,0.00,,Partly Cloudy,30,2013-08-16 17:53:00
11:53 AM,75.0,51.1,43,29.96,10.0,Calm,Calm,-,N/A,,Clear,0,2013-08-16 18:53:00
12:53 PM,77.0,48.0,36,29.96,10.0,SSW,4.6,-,N/A,,Mostly Cloudy,200,2013-08-16 19:53:00
1:53 PM,79.0,46.9,32,29.95,10.0,Variable,3.5,-,0.00,,Mostly Cloudy,0,2013-08-16 20:53:00
2:53 PM,81.0,46.0,29,29.93,10.0,SSW,10.4,-,N/A,,Clear,200,2013-08-16 21:53:00
3:53 PM,84.9,43.0,23,29.91,10.0,SW,5.8,-,N/A,,Clear,220,2013-08-16 22:53:00
4:53 PM,84.9,42.1,22,29.90,10.0,Calm,Calm,-,N/A,,Clear,0,2013-08-16 23:53:00
5:53 PM,84.0,39.9,21,29.88,10.0,SW,6.9,-,N/A,,Clear,220,2013-08-17 00:53:00
6:53 PM,84.9,41.0,21,29.88,10.0,SSW,4.6,-,N/A,,Clear,210,2013-08-17 01:53:00
7:53 PM,80.1,41.0,25,29.88,10.0,SW,3.5,-,N/A,,Clear,230,2013-08-17 02:53:00
8:53 PM,73.9,42.1,32,29.89,10.0,Calm,Calm,-,N/A,,Clear,0,2013-08-17 03:53:00
9:53 PM,73.0,44.1,35,29.90,10.0,WSW,4.6,-,N/A,,Clear,240,2013-08-17 04:53:00
10:53 PM,71.1,46.9,42,29.90,10.0,Calm,Calm,-,N/A,,Clear,0,2013-08-17 05:53:00
11:53 PM,70.0,48.9,47,29.90,10.0,Calm,Calm,-,N/A,,Clear,0,2013-08-17 06:53:00